Home > Weather > Prenzlau > Past weeks

Flag for Germany Past Weather in Prenzlau, Brandenburg, Germany — Yesterday and Last 2 Weeks

Now
72 °F

Passing clouds.


Feels Like: 77 °F
Forecast: 56 / 71 °F
Wind: 6 mph from West

Location: Szczecin Airport

Current Time: Jun 27, 2016 at 8:41:34 PM

Latest Report: Jun 27, 2016 at 8:00 PM


Visibility: N/A

Pressure: 29.98 "Hg

Humidity: 47%

Dew Point: 50 °F

Location of PrenzlauLocation

Past Weather in Prenzlau — Graph

°F

Prenzlau Temperature Yesterday

Maximum temperature yesterday: 72 °F (at 6:00 PM)
Minimum temperature yesterday: 57 °F (at 11:30 PM)
Average temperature yesterday: 66 °F

High & Low Weather Summary for the Past Weeks

 TemperatureHumidityPressure
High91 °F (Jun 25, 1:00 PM)100% (Jun 13, 3:00 PM)30.27 "Hg (Jun 13, 3:00 PM)
Low50 °F (Jun 19, 3:30 AM)39% (Jun 22, 3:30 PM)29.42 "Hg (Jun 17, 11:00 AM)
Average65 °F77%29.88 "Hg
* Reported Jun 12 7:00 PM — Jun 27 7:30 PM, Prenzlau, Weather by CustomWeather, © 2016

Note: Actual official high and low records may vary slightly from our data, if they occured in-between our weather recording intervals... More about our weather records

Advertising

Prenzlau Weather History for the Previous 24 Hours

Scroll right to see more
 ConditionsComfort  
Time TempWeatherWind HumidityBarometerVisibility
7:30 PM
Mon, Jun 27
72 °FSunny.5 mph47%29.98 "Hg10 mi
7:00 PM72 °FSunny.9 mph47%29.98 "Hg10 mi
6:30 PM72 °FPassing clouds.8 mph50%29.98 "HgN/A
6:00 PM72 °FPassing clouds.8 mph44%29.98 "HgN/A
5:30 PM72 °FPassing clouds.12 mph44%29.98 "HgN/A
5:00 PM72 °FSunny.10 mph44%30.01 "Hg10 mi
4:30 PM72 °FPassing clouds.13 mph44%29.98 "HgN/A
4:00 PM72 °FPassing clouds.10 mph47%30.01 "HgN/A
3:30 PM72 °FPassing clouds.10 mph47%30.01 "HgN/A
3:00 PM72 °FSunny.13 mph47%30.01 "Hg10 mi
2:30 PM72 °FPassing clouds.12 mph47%30.01 "HgN/A
2:00 PM70 °FScattered clouds.9 mph53%30.01 "HgN/A
1:30 PM70 °FPassing clouds.10 mph46%30.01 "HgN/A
1:00 PM72 °FPassing clouds.12 mph50%30.01 "HgN/A
12:30 PM72 °FPassing clouds.10 mph53%30.01 "HgN/A
12:00 PM70 °FPassing clouds.12 mph50%30.04 "HgN/A
11:30 AM70 °FScattered clouds.12 mph57%30.04 "HgN/A
11:00 AM70 °FPassing clouds.12 mph57%30.01 "HgN/A
10:30 AM68 °FPassing clouds.8 mph60%30.01 "HgN/A
10:00 AM68 °FPassing clouds.10 mph56%30.04 "HgN/A
9:30 AM68 °FPassing clouds.6 mph60%30.01 "HgN/A
9:00 AM66 °FPassing clouds.5 mph64%30.01 "HgN/A
8:30 AM64 °FSunny.5 mph73%30.01 "Hg10 mi
8:00 AM63 °FPassing clouds.5 mph77%30.01 "HgN/A
7:30 AM61 °FSunny.2 mph83%30.01 "Hg10 mi
7:00 AM59 °FPassing clouds.5 mph82%30.01 "HgN/A
6:30 AM57 °FSunny.5 mph94%30.04 "Hg10 mi
6:00 AM52 °FSunny.3 mph100%30.01 "Hg10 mi
5:30 AM52 °FClear.2 mph94%30.01 "Hg10 mi
5:00 AM50 °FClear.2 mph100%30.01 "Hg10 mi
4:30 AM54 °FClear.3 mph88%30.01 "Hg10 mi
4:00 AM52 °FClear.5 mph94%30.01 "Hg10 mi
3:30 AM52 °FClear.3 mph94%30.01 "Hg10 mi
3:00 AM52 °FClear.3 mph94%30.01 "Hg10 mi
2:30 AM52 °FClear.2 mph94%30.01 "Hg10 mi
2:00 AM52 °FClear.3 mph94%30.01 "Hg10 mi
1:30 AM52 °FClear.3 mph100%30.01 "Hg10 mi
1:00 AM54 °FClear.3 mph94%30.01 "Hg10 mi
12:30 AM54 °FClear.3 mph94%30.01 "Hg10 mi
12:00 AM55 °FClear.2 mph94%30.01 "Hg10 mi
11:30 PM
Sun, Jun 26
57 °FClear.2 mph88%30.01 "Hg10 mi
11:00 PM59 °FClear.2 mph82%30.01 "Hg10 mi
10:30 PM61 °FSunny.2 mph83%30.01 "Hg10 mi
10:00 PM63 °FSunny.2 mph77%30.01 "Hg10 mi
9:30 PM68 °FSunny.2 mph56%30.01 "Hg10 mi
9:00 PM68 °FPassing clouds.3 mph56%30.01 "HgN/A
8:30 PM68 °FSunny.5 mph56%29.98 "Hg10 mi
8:00 PM70 °FPassing clouds.5 mph53%29.98 "HgN/A
Weather by CustomWeather, © 2016

See weather overviewHow to use our weather pages